FEATURED EVENT

Flyer

Online Entries Open May 4-6
FEATURED EVENT

Flyer

Online Entries Open Monday prior
FEATURED EVENT

Flyer

Online Entries are Open thru May 9th
NOTE START TIME CHANGES
FEATURED EVENT

Flyer

Online Entries Open Mondays Prior

MAYFEST HATTIESBURG, MS MAY 29-31, 2004

$30,000 Added
May 29th – 31st, 2004
OPEN 4D – YOUTH 4D – SENIOR
FORREST COUNTY MULTI PURPOSE CENTER
HATTIESBURG, MS

To view placings in a single event type one of the following in the event search…

  • Senior
  • Youth
  • Open
wdt_ID DAY EVENT D PL RIDER HORSE TIME PAY
1 05-29-04 Open 1D 1st ADD WADDELL HIGH ON  HOLME 15.646 1,085.00
2 05-29-04 Open 1D 2nd LORI HANCOCK RC 15.839 775.00
3 05-29-04 Open 1D 3rd ADD WADDELL RISKY CHRIS 15.846 620.00
4 05-29-04 Open 1D 4th ALICIA SHELTON QUEENS -N- THINGS 15.855 581.00
5 05-29-04 Open 1D 5th ADD WADDELL POSTTO SMILE FOR A WIN 15.868 543.00
6 05-29-04 Open 1D 6th Brandi  Harris Money's  Madness 15.87 504.00
7 05-29-04 Open 1D 7th JASON WILCOX HR RED BAR MONEY 15.871 465.00
8 05-29-04 Open 1D 8th Kim  Landry Petes Rare Money 15.921 426.00
9 05-29-04 Open 1D 9th Katti Pinnix Stranger 15.923 388.00
10 05-29-04 Open 1D 10th MARY PENNINGTON RIP SNIP WRANGLER 15.928 349.00
11 05-29-04 Open 1D 11th Halie Sweeney Yabba Dabba Doll 15.958 310.00
12 05-29-04 Open 1D 12th DANA HAAS SHES A POWER TRAIN 15.978 287.00
13 05-29-04 Open 1D 13th EMMA HAYES MY DESTINY RSH 15.988 256.00
14 05-29-04 Open 1D 14th MARK MCKUIN NICKY BRICK HOUSE 16.007 233.00
15 05-29-04 Open 1D 15th Billie Ann Sexton Shorty 16.024 209.00
16 05-29-04 Open 1D 16th CARY QUAKENBUSH JET 16.037 178.00
17 05-29-04 Open 1D 17th Brandon Halterlein Steps Tax Return 16.092 171.00
18 05-29-04 Open 1D 18th AMANDA THURMON GWL BANDIDO SAN 16.105 140.00
19 05-29-04 Open 1D 19th JUSTIN STEWART RAISE SPEED 16.119 124.00
20 05-29-04 Open 1D 20th ASHLEY NECAISE JETTIN FOUR HONOR 16.144 109.00
21 05-29-04 Open 2D 1st Toni Necaise First Down Dawn 16.17 977.00
22 05-29-04 Open 2D 2nd Nancy Brannon Nows Your Chance O J 16.179 698.00
23 05-29-04 Open 2D 3rd Alllison Ameen Polite Cowboy 16.189 558.00
24 05-29-04 Open 2D 4th HEATHER JENKINS SHAMROCKER 16.208 523.00
25 05-29-04 Open 2D 5th DEBBIE MARTIN FLAMING & FLYING 16.215 488.00
26 05-29-04 Open 2D 6th JOY PARKER ROMANYROYAL COMANCHE 16.233 453.00
27 05-29-04 Open 2D 7th ASHLEY JAMES CLASSY N SPECIAL 16.242 419.00
28 05-29-04 Open 2D 8th Jackie Buckhannam Candy 16.252 384.00
29 05-29-04 Open 2D 9th MISSY ALDY TETE BUGS PASSION 16.26 331.50
30 05-29-04 Open 2D 9th Codie Marie Podgurski Hot Steel Miss 16.26 331.50
31 05-29-04 Open 2D 11th Cyndi Parker Gladiator 16.296 279.00
32 05-29-04 Open 2D 12th Nina Hester Bubbas Flyin Nonstop 16.299 258.00
33 05-29-04 Open 2D 13th JASON WILCOX RUNNIN RED MERGASER 16.304 230.00
34 05-29-04 Open 2D 14th Sheri Jones TURN 16.31 209.00
35 05-29-04 Open 2D 15th Merrill O'Neal Mighty Mr Ed 16.313 188.00
36 05-29-04 Open 2D 15th HALEY THOMPSON BREEZY'S TARI 16.318 156.50
37 05-29-04 Open 2D 17th Johnette Norris Go Toes Wonder 16.318 156.50
38 05-29-04 Open 2D 18th Scott Shelton Passem Up Boy 16.329 126.00
39 05-29-04 Open 2D 19th Kelly Harrell WHF Partick's Dream 16.378 112.00
40 05-29-04 Open 2D 20th TIFFANY SMITH BOSTON'S BLACK LANCE 16.379 98.00
41 05-29-04 Open 2D 21st Sheryl Hamiter Bolders Runner 16.396 0.00
42 05-29-04 Open 2D 21st Selena Graham Wimpy Tee One 16.396 0.00
43 05-29-04 Open 2D 23rd CAROLYN KELLY DOCS SAM 16.398 0.00
44 05-29-04 Open 2D 24th Brenda Agnew Town Warrior 16.404 0.00
45 05-29-04 Open 2D 25th Rebecca Ann Dupont Request 16.406 0.00
46 05-29-04 Open 2D 26th Ericka Register Perks Squaw 16.418 0.00
47 05-29-04 Open 2D 27th Terri Alexander ALAKAZAM 16.428 0.00
48 05-29-04 Open 2D 28th Darlene Moran Flamin Hot Socks 16.429 0.00
49 05-29-04 Open 2D 29th Daniel Dover Long Shot 16.431 0.00
50 05-29-04 Open 2D 30th Jamie Armond Won Dun Jet 16.432 0.00
51 05-29-04 Open 2D 31st Susan Moore CACTUS HONOR 16.433 0.00
52 05-29-04 Open 2D 32nd Darlene DeVine ZEROS WARRIOR EAGLE 16.434 0.00
53 05-29-04 Open 2D 33rd Summer  Theriot Calley 16.448 0.00
54 05-29-04 Open 2D 34th Erin Griffin Ryon's Vapor Trail 16.454 0.00
55 05-29-04 Open 2D 34th Jennifer Wynn Double Cash Debt 16.454 0.00
56 05-29-04 Open 2D 36th PAIGE WELLS JETTING FANCY 16.456 0.00
57 05-29-04 Open 2D 37th Ashley Cornell Leos Satin Sugar 16.459 0.00
58 05-29-04 Open 2D 38th Trellis McCann One More Avenger 16.465 0.00
59 05-29-04 Open 2D 39th STEPHANIE WHEELER FLASH 16.47 0.00
60 05-29-04 Open 2D 40th RUSSELL TUCKER MY MISS SAN PEPPY 16.473 0.00
61 05-29-04 Open 2D 41st Debbie McCormick Obie 16.489 0.00
62 05-29-04 Open 2D 42nd Kathy Aulds Concur 16.496 0.00
63 05-29-04 Open 2D 43rd PAUL FOX MURPHY ALLEN 16.501 0.00
64 05-29-04 Open 2D 44th Susan Moore MONEY THE FASTWAY 16.504 0.00
65 05-29-04 Open 2D 44th Margie Redditt Electro Bars 16.512 0.00
66 05-29-04 Open 2D 46th EDDY HULSEY ANOTHER ZERO HERO 16.512 0.00
67 05-29-04 Open 2D 47th Kaci Smith Cal's Lil Man 16.515 0.00
68 05-29-04 Open 2D 48th Marty Sasser Rebel 16.517 0.00
69 05-29-04 Open 2D 49th Ericka Register Dash   16.518 0.00
70 05-29-04 Open 2D 50th SANDY HUBLER STRAIT BALLOT 16.526 0.00
71 05-29-04 Open 2D 51st Nancy Clark Peppys No Question 16.53 0.00
72 05-29-04 Open 2D 52nd ALICIA SHELTON STREAKIN SUPER STAR 16.534 0.00
73 05-29-04 Open 2D 53rd VICTORIA BAXTER TURBO 16.544 0.00
74 05-29-04 Open 2D 54th CALLIE JO SURLEL REALITY CREEK 16.545 0.00
75 05-29-04 Open 2D 54th Miai Veazey Skeeter 16.545 0.00
76 05-29-04 Open 2D 56th Travis Carlisle The Big Bud 16.548 0.00
77 05-29-04 Open 2D 57th Diana Jones Difference Maker 16.553 0.00
78 05-29-04 Open 2D 58th MORGAN PORTER FANCY MAID SKIP 16.562 0.00
79 05-29-04 Open 2D 59th DAWN HANKINS EASIY BID BAILEY 16.569 0.00
80 05-29-04 Open 2D 60th THOMAS KINGSTON CHAMPAIGN TWISTER 16.57 0.00
81 05-29-04 Open 2D 61st AMANDA BENEFIELD HIGHLY FORTUNATE 16.573 0.00
82 05-29-04 Open 2D 62nd CAROLYN KELLY KELLY 16.582 0.00
83 05-29-04 Open 2D 63rd JUSTIN STEWART BRAZZELE 16.59 0.00
84 05-29-04 Open 2D 64th Taylor Hughes MR LUCKY BAR FOX 16.591 0.00
85 05-29-04 Open 2D 65th Evelyn Kirby Chicados Top Smash 16.609 0.00
86 05-29-04 Open 2D 66th Ericka Register Zans Scooten Par 16.61 0.00
87 05-29-04 Open 2D 67th LACY SPANO DAKOTA 16.616 0.00
88 05-29-04 Open 2D 68th TONY GUILBEAU MS TIVIO POCO 16.622 0.00
89 05-29-04 Open 2D 69th LORI HANCOCK DOC 16.642 0.00
90 05-29-04 Open 2D 70th MICHAEL KERVIN DREAMS 16.644 0.00
91 05-29-04 Open 3D 1st Shannon Daves Bailey 16.65 713.00
92 05-29-04 Open 3D 1st RANDY HULSEY CASH ROUTINE 16.65 713.00
93 05-29-04 Open 3D 3rd HANNAH CAMPBELL FLYAWAY FLAME 16.656 475.00
94 05-29-04 Open 3D 4th JASON WILCOX ONE SPECIAL MATE 16.665 446.00
95 05-29-04 Open 3D 5th Kim Faison Ravan High 16.667 416.00
96 05-29-04 Open 3D 6th DAWN HANKINS DELOY'S DELIGHT 16.697 386.00
97 05-29-04 Open 3D 7th Tammy  Odom Jett 16.711 357.00
98 05-29-04 Open 3D 8th Kaitlen Enfinger Peppys Lea Sugar 16.713 327.00
99 05-29-04 Open 3D 9th RENAY WEST IM BODACIAS DUDE 16.719 297.00
100 05-29-04 Open 3D 10th PAUL FOX BUCKET OF TAR 16.735 267.00
$ 19,126.00